Location: Township of Marena
(38.1747°N, 99.6798°W)
Time: 02:39:03
(UTC+00:00)

Cosmos 1908 - Pass Details

Date: 26 October 2020
Orbit: 512 x 529 km, 82.5° (Epoch: 27 November)

Event Time Altitude Azimuth Distance (km) Brightness Sun altitude
Exits shadow 11:43:51 29° 266° (W) 995 4.0 -15.4°
Drops below altitude 10° 11:47:07 10° 209° (SSW) 1,769 5.7 -14.7°
Sets 11:49:26 0° 198° (SSW) 2,653 6.7 -14.3°
